QPF
0.01 0.01 0.01 0.01 0.02 0.03 0.04 0.05 0.05 0.04 0.02 0.02 0.02 0.02 0.02 0.03 0.04 0.06 0.05 0.04 0.04 0.05 0.04 0.04 0.06 0.09 0.10 0.10 0.10 0.09 0.09 0.09 0.12 0.14 0.11 0.08 0.08 0.09 0.07 0.07 0.09 0.12 0.16
0.02 0.02 0.02 0.02 0.01 0.01 0.02 0.04 0.05 0.05 0.03 0.01 0.01 0.02 0.02 0.02 0.03 0.04 0.05 0.05 0.05 0.06 0.04 0.04 0.06 0.08 0.11 0.12 0.10 0.09 0.09 0.08 0.08 0.11 0.11 0.09 0.08 0.10 0.10 0.10 0.10 0.11 0.11
0.03 0.02 0.03 0.02 0.01 0.00 0.00 0.01 0.02 0.03 0.04 0.04 0.04 0.04 0.04 0.04 0.04 0.04 0.05 0.06 0.07 0.07 0.07 0.06 0.05 0.06 0.07 0.09 0.11 0.11 0.09 0.09 0.11 0.11 0.10 0.09 0.07 0.08 0.11 0.11 0.09 0.09 0.10
0.03 0.02 0.03 0.03 0.02 0.01 0.00 0.00 0.01 0.01 0.03 0.03 0.03 0.04 0.04 0.03 0.03 0.05 0.05 0.06 0.08 0.12 0.12 0.09 0.10 0.09 0.08 0.07 0.08 0.09 0.10 0.10 0.11 0.12 0.11 0.09 0.07 0.10 0.13 0.14 0.10 0.08 0.09
0.03 0.03 0.04 0.04 0.03 0.01 0.00 0.01 0.01 0.01 0.01 0.01 0.02 0.03 0.03 0.03 0.04 0.04 0.04 0.05 0.07 0.12 0.15 0.11 0.09 0.08 0.07 0.06 0.06 0.07 0.08 0.08 0.07 0.10 0.11 0.12 0.11 0.12 0.11 0.15 0.13 0.10 0.10
0.04 0.03 0.04 0.04 0.04 0.03 0.01 0.01 0.01 0.01 0.00 0.00 0.01 0.02 0.02 0.02 0.03 0.03 0.03 0.02 0.03 0.06 0.08 0.07 0.06 0.05 0.04 0.04 0.06 0.06 0.06 0.07 0.07 0.07 0.08 0.10 0.09 0.08 0.09 0.10 0.11 0.11 0.11
0.03 0.06 0.08 0.07 0.08 0.07 0.05 0.02 0.01 0.01 0.01 0.01 0.02 0.03 0.02 0.02 0.03 0.03 0.02 0.01 0.01 0.01 0.02 0.05 0.06 0.04 0.03 0.04 0.05 0.08 0.07 0.08 0.08 0.08 0.08 0.08 0.07 0.08 0.09 0.09 0.08 0.06 0.05
0.03 0.08 0.13 0.14 0.12 0.10 0.08 0.04 0.03 0.02 0.01 0.01 0.02 0.03 0.02 0.02 0.03 0.03 0.03 0.02 0.01 0.01 0.01 0.04 0.05 0.04 0.04 0.04 0.06 0.06 0.06 0.07 0.06 0.07 0.08 0.08 0.07 0.07 0.07 0.06 0.05 0.03 0.03
0.03 0.09 0.14 0.15 0.13 0.12 0.08 0.05 0.04 0.03 0.03 0.02 0.02 0.03 0.02 0.02 0.03 0.02 0.02 0.02 0.02 0.02 0.01 0.02 0.04 0.05 0.06 0.06 0.06 0.06 0.06 0.07 0.06 0.06 0.06 0.07 0.07 0.07 0.06 0.06 0.05 0.05 0.03
0.05 0.08 0.09 0.11 0.09 0.07 0.06 0.05 0.04 0.04 0.04 0.04 0.03 0.03 0.03 0.02 0.01 0.01 0.01 0.02 0.02 0.01 0.01 0.02 0.02 0.04 0.06 0.06 0.07 0.07 0.08 0.08 0.06 0.06 0.06 0.04 0.05 0.06 0.06 0.06 0.07 0.06 0.04
0.05 0.08 0.08 0.06 0.04 0.03 0.03 0.03 0.04 0.04 0.04 0.03 0.04 0.04 0.03 0.02 0.02 0.01 0.02 0.02 0.01 0.01 0.01 0.02 0.01 0.01 0.02 0.04 0.06 0.08 0.08 0.08 0.06 0.05 0.06 0.04 0.04 0.06 0.06 0.05 0.05 0.05 0.05
0.07 0.09 0.07 0.06 0.03 0.02 0.02 0.02 0.03 0.04 0.05 0.04 0.04 0.03 0.03 0.03 0.03 0.03 0.02 0.01 0.01 0.01 0.01 0.01 0.01 0.01 0.01 0.01 0.03 0.05 0.06 0.07 0.08 0.06 0.05 0.03 0.02 0.04 0.04 0.03 0.02 0.02 0.02
0.04 0.04 0.03 0.02 0.02 0.02 0.02 0.02 0.02 0.03 0.04 0.03 0.03 0.04 0.04 0.03 0.03 0.02 0.02 0.02 0.01 0.02 0.02 0.03 0.02 0.02 0.01 0.01 0.02 0.03 0.04 0.05 0.07 0.06 0.05 0.03 0.03 0.03 0.03 0.04 0.02 0.02 0.01
0.01 0.02 0.02 0.02 0.02 0.02 0.02 0.01 0.02 0.02 0.04 0.06 0.06 0.04 0.03 0.02 0.02 0.02 0.03 0.03 0.03 0.03 0.02 0.02 0.02 0.02 0.01 0.01 0.02 0.02 0.02 0.03 0.05 0.07 0.05 0.04 0.04 0.03 0.03 0.03 0.02 0.02 0.02
0.02 0.02 0.02 0.02 0.01 0.02 0.01 0.02 0.03 0.03 0.03 0.03 0.04 0.06 0.03 0.02 0.03 0.04 0.04 0.04 0.04 0.04 0.03 0.03 0.03 0.03 0.03 0.03 0.03 0.02 0.02 0.02 0.04 0.06 0.06 0.04 0.04 0.04 0.03 0.03 0.03 0.04 0.03
0.02 0.02 0.02 0.01 0.01 0.02 0.02 0.02 0.03 0.03 0.02 0.02 0.01 0.01 0.02 0.03 0.03 0.04 0.04 0.05 0.05 0.05 0.05 0.05 0.05 0.05 0.04 0.03 0.03 0.02 0.02 0.02 0.03 0.05 0.10 0.09 0.06 0.05 0.05 0.04 0.04 0.03 0.03
0.01 0.01 0.01 0.01 0.01 0.02 0.03 0.03 0.03 0.03 0.02 0.01 0.01 0.01 0.01 0.02 0.02 0.04 0.05 0.05 0.05 0.05 0.05 0.04 0.05 0.05 0.04 0.04 0.02 0.01 0.01 0.02 0.03 0.04 0.09 0.13 0.11 0.08 0.06 0.04 0.03 0.02 0.02
0.01 0.02 0.02 0.02 0.02 0.03 0.03 0.03 0.03 0.03 0.02 0.02 0.02 0.02 0.02 0.02 0.03 0.04 0.08 0.09 0.09 0.07 0.06 0.05 0.05 0.05 0.04 0.05 0.03 0.02 0.02 0.01 0.02 0.02 0.04 0.06 0.05 0.04 0.04 0.03 0.02 0.01 0.01
0.02 0.02 0.02 0.02 0.02 0.03 0.02 0.02 0.02 0.02 0.02 0.02 0.02 0.02 0.03 0.03 0.04 0.05 0.08 0.12 0.12 0.12 0.11 0.10 0.10 0.09 0.08 0.07 0.04 0.03 0.02 0.01 0.02 0.02 0.03 0.02 0.02 0.03 0.02 0.01 0.01 0.01 0.01
0.01 0.02 0.03 0.02 0.02 0.02 0.02 0.02 0.02 0.01 0.01 0.01 0.02 0.03 0.03 0.04 0.05 0.07 0.09 0.10 0.09 0.10 0.11 0.12 0.14 0.15 0.16 0.11 0.05 0.03 0.02 0.01 0.02 0.02 0.02 0.02 0.02 0.02 0.01 0.01 0.00 0.00 0.00
0.01 0.02 0.02 0.02 0.01 0.01 0.01 0.01 0.01 0.01 0.01 0.01 0.03 0.04 0.04 0.04 0.05 0.06 0.07 0.07 0.09 0.11 0.12 0.12 0.13 0.11 0.09 0.07 0.05 0.03 0.02 0.01 0.01 0.02 0.03 0.03 0.03 0.03 0.02 0.01 0.00 0.01 0.01
0.01 0.01 0.01 0.01 0.01 0.00 0.00 0.01 0.01 0.01 0.02 0.02 0.03 0.04 0.04 0.04 0.04 0.05 0.05 0.07 0.09 0.10 0.10 0.10 0.08 0.05 0.04 0.04 0.04 0.03 0.02 0.01 0.01 0.02 0.03 0.03 0.03 0.04 0.03 0.02 0.01 0.02 0.02
0.01 0.01 0.01 0.01 0.00 0.00 0.00 0.01 0.01 0.01 0.02 0.03 0.03 0.03 0.03 0.03 0.04 0.04 0.04 0.04 0.05 0.06 0.06 0.07 0.05 0.03 0.02 0.02 0.02 0.02 0.03 0.03 0.02 0.02 0.04 0.02 0.02 0.03 0.03 0.04 0.03 0.03 0.02
0.01 0.01 0.01 0.01 0.01 0.01 0.01 0.01 0.01 0.01 0.01 0.01 0.01 0.02 0.02 0.03 0.04 0.04 0.03 0.04 0.05 0.06 0.06 0.06 0.06 0.04 0.03 0.02 0.02 0.02 0.03 0.04 0.04 0.02 0.03 0.03 0.03 0.03 0.03 0.04 0.04 0.04 0.03
0.02 0.01 0.01 0.00 0.00 0.01 0.01 0.01 0.01 0.01 0.01 0.01 0.01 0.01 0.01 0.02 0.03 0.04 0.03 0.03 0.05 0.07 0.08 0.08 0.08 0.09 0.08 0.06 0.04 0.03 0.02 0.03 0.04 0.05 0.05 0.04 0.03 0.03 0.02 0.02 0.03 0.03 0.04
0.02 0.01 0.01 0.01 0.01 0.00 0.00 0.00 0.01 0.01 0.01 0.01 0.02 0.02 0.02 0.03 0.03 0.03 0.04 0.03 0.03 0.04 0.06 0.09 0.11 0.13 0.11 0.07 0.04 0.03 0.03 0.03 0.04 0.05 0.05 0.04 0.04 0.03 0.02 0.01 0.02 0.02 0.02
MSLP
1008.56 1008.73 1008.88 1008.96 1008.98 1008.93 1008.85 1008.78 1008.77 1008.84 1009.00 1009.21 1009.43 1009.63 1009.77 1009.82 1009.79 1009.71 1009.65 1009.63 1009.72 1009.94 1010.28 1010.73 1011.24 1011.75 1012.23 1012.66 1013.02 1013.32 1013.59 1013.85 1014.10 1014.36 1014.61 1014.83 1015.00 1015.09 1015.09 1015.03 1014.93 1014.83 1014.76
1008.41 1008.63 1008.80 1008.89 1008.88 1008.81 1008.70 1008.63 1008.64 1008.76 1008.98 1009.27 1009.57 1009.83 1009.99 1010.02 1009.94 1009.79 1009.62 1009.51 1009.50 1009.63 1009.90 1010.30 1010.76 1011.25 1011.71 1012.11 1012.46 1012.77 1013.05 1013.33 1013.64 1013.97 1014.31 1014.63 1014.89 1015.07 1015.14 1015.13 1015.05 1014.94 1014.84
1008.17 1008.45 1008.67 1008.78 1008.78 1008.70 1008.59 1008.51 1008.54 1008.70 1008.97 1009.33 1009.70 1010.01 1010.21 1010.25 1010.15 1009.94 1009.70 1009.50 1009.40 1009.43 1009.61 1009.93 1010.32 1010.74 1011.14 1011.50 1011.81 1012.09 1012.37 1012.67 1013.03 1013.42 1013.85 1014.26 1014.63 1014.91 1015.08 1015.14 1015.11 1015.02 1014.91
1007.87 1008.21 1008.50 1008.67 1008.71 1008.65 1008.54 1008.47 1008.51 1008.68 1008.99 1009.39 1009.82 1010.18 1010.41 1010.47 1010.37 1010.15 1009.87 1009.60 1009.42 1009.37 1009.45 1009.67 1009.96 1010.29 1010.60 1010.89 1011.14 1011.37 1011.63 1011.93 1012.30 1012.75 1013.24 1013.74 1014.20 1014.58 1014.85 1014.99 1015.03 1014.99 1014.91
1007.56 1007.99 1008.36 1008.61 1008.71 1008.67 1008.59 1008.52 1008.55 1008.73 1009.04 1009.46 1009.90 1010.29 1010.55 1010.65 1010.57 1010.35 1010.05 1009.75 1009.52 1009.40 1009.40 1009.52 1009.71 1009.93 1010.15 1010.35 1010.52 1010.69 1010.90 1011.17 1011.54 1011.99 1012.52 1013.07 1013.61 1014.07 1014.43 1014.66 1014.77 1014.80 1014.77
1007.33 1007.83 1008.29 1008.62 1008.79 1008.80 1008.73 1008.67 1008.68 1008.82 1009.11 1009.50 1009.93 1010.32 1010.60 1010.72 1010.67 1010.47 1010.19 1009.89 1009.64 1009.47 1009.41 1009.45 1009.55 1009.67 1009.79 1009.90 1009.98 1010.08 1010.22 1010.44 1010.77 1011.21 1011.73 1012.30 1012.87 1013.39 1013.81 1014.12 1014.32 1014.42 1014.46
1007.21 1007.78 1008.32 1008.73 1008.96 1009.02 1008.97 1008.89 1008.86 1008.95 1009.18 1009.51 1009.89 1010.25 1010.52 1010.65 1010.63 1010.47 1010.22 1009.95 1009.70 1009.52 1009.42 1009.40 1009.43 1009.48 1009.51 1009.53 1009.53 1009.55 1009.62 1009.77 1010.04 1010.42 1010.91 1011.46 1012.03 1012.57 1013.03 1013.41 1013.68 1013.86 1013.98
1007.23 1007.85 1008.46 1008.93 1009.21 1009.30 1009.26 1009.15 1009.08 1009.10 1009.23 1009.48 1009.79 1010.09 1010.33 1010.46 1010.46 1010.33 1010.12 1009.89 1009.66 1009.49 1009.38 1009.33 1009.31 1009.30 1009.27 1009.22 1009.15 1009.09 1009.08 1009.16 1009.35 1009.67 1010.09 1010.59 1011.13 1011.67 1012.16 1012.58 1012.92 1013.18 1013.39
1007.37 1008.03 1008.67 1009.17 1009.48 1009.59 1009.54 1009.41 1009.29 1009.23 1009.28 1009.43 1009.65 1009.88 1010.07 1010.18 1010.18 1010.08 1009.91 1009.70 1009.51 1009.35 1009.25 1009.19 1009.14 1009.09 1009.02 1008.91 1008.79 1008.67 1008.60 1008.60 1008.72 1008.95 1009.30 1009.75 1010.24 1010.76 1011.26 1011.71 1012.11 1012.45 1012.75
1007.59 1008.25 1008.90 1009.41 1009.73 1009.84 1009.78 1009.63 1009.46 1009.34 1009.31 1009.38 1009.51 1009.67 1009.80 1009.87 1009.86 1009.76 1009.61 1009.43 1009.27 1009.13 1009.03 1008.96 1008.90 1008.83 1008.72 1008.59 1008.43 1008.27 1008.14 1008.09 1008.14 1008.31 1008.59 1008.97 1009.42 1009.91 1010.40 1010.88 1011.32 1011.73 1012.11
1007.82 1008.47 1009.10 1009.59 1009.90 1009.99 1009.93 1009.77 1009.58 1009.43 1009.35 1009.36 1009.43 1009.52 1009.59 1009.62 1009.58 1009.47 1009.31 1009.14 1008.97 1008.84 1008.73 1008.66 1008.59 1008.50 1008.39 1008.23 1008.06 1007.87 1007.72 1007.63 1007.63 1007.75 1007.97 1008.30 1008.71 1009.17 1009.65 1010.14 1010.61 1011.06 1011.51
1008.02 1008.65 1009.23 1009.68 1009.95 1010.03 1009.97 1009.82 1009.64 1009.49 1009.41 1009.40 1009.43 1009.47 1009.50 1009.48 1009.39 1009.25 1009.06 1008.87 1008.69 1008.53 1008.42 1008.33 1008.24 1008.15 1008.03 1007.87 1007.69 1007.51 1007.34 1007.24 1007.21 1007.29 1007.48 1007.76 1008.13 1008.56 1009.02 1009.50 1009.98 1010.46 1010.93
1008.17 1008.75 1009.27 1009.65 1009.88 1009.95 1009.90 1009.78 1009.65 1009.55 1009.50 1009.50 1009.53 1009.55 1009.53 1009.46 1009.32 1009.13 1008.90 1008.66 1008.44 1008.25 1008.11 1008.00 1007.90 1007.80 1007.68 1007.54 1007.36 1007.19 1007.03 1006.92 1006.88 1006.94 1007.10 1007.35 1007.67 1008.06 1008.49 1008.94 1009.40 1009.87 1010.33
1008.28 1008.79 1009.23 1009.53 1009.71 1009.76 1009.74 1009.67 1009.61 1009.59 1009.60 1009.65 1009.69 1009.71 1009.67 1009.55 1009.35 1009.10 1008.80 1008.51 1008.24 1008.01 1007.83 1007.70 1007.60 1007.50 1007.39 1007.25 1007.10 1006.94 1006.80 1006.69 1006.65 1006.68 1006.81 1007.02 1007.30 1007.63 1008.01 1008.41 1008.82 1009.24 1009.66
1008.37 1008.80 1009.13 1009.36 1009.48 1009.52 1009.53 1009.52 1009.55 1009.61 1009.71 1009.81 1009.89 1009.91 1009.84 1009.68 1009.42 1009.10 1008.74 1008.39 1008.07 1007.80 1007.60 1007.45 1007.35 1007.25 1007.16 1007.05 1006.92 1006.78 1006.64 1006.54 1006.48 1006.49 1006.57 1006.73 1006.95 1007.21 1007.51 1007.84 1008.17 1008.52 1008.88
1008.46 1008.80 1009.03 1009.17 1009.24 1009.27 1009.30 1009.35 1009.46 1009.60 1009.77 1009.93 1010.04 1010.06 1009.97 1009.77 1009.46 1009.07 1008.66 1008.25 1007.89 1007.60 1007.38 1007.24 1007.14 1007.07 1006.99 1006.91 1006.80 1006.67 1006.54 1006.43 1006.34 1006.31 1006.33 1006.42 1006.55 1006.73 1006.95 1007.18 1007.43 1007.70 1007.99
1008.58 1008.82 1008.95 1009.01 1009.03 1009.04 1009.08 1009.18 1009.35 1009.56 1009.78 1009.97 1010.10 1010.11 1009.99 1009.74 1009.38 1008.95 1008.49 1008.06 1007.67 1007.37 1007.16 1007.03 1006.96 1006.91 1006.87 1006.81 1006.72 1006.60 1006.46 1006.31 1006.18 1006.09 1006.03 1006.03 1006.08 1006.17 1006.29 1006.44 1006.61 1006.81 1007.04
1008.73 1008.87 1008.92 1008.90 1008.87 1008.85 1008.90 1009.03 1009.22 1009.46 1009.71 1009.91 1010.02 1010.01 1009.86 1009.57 1009.17 1008.70 1008.22 1007.77 1007.39 1007.10 1006.91 1006.81 1006.78 1006.76 1006.75 1006.71 1006.63 1006.50 1006.34 1006.15 1005.96 1005.79 1005.66 1005.56 1005.52 1005.52 1005.56 1005.64 1005.76 1005.92 1006.13
1008.90 1008.96 1008.93 1008.85 1008.77 1008.74 1008.77 1008.90 1009.09 1009.33 1009.56 1009.74 1009.82 1009.77 1009.57 1009.24 1008.81 1008.32 1007.83 1007.39 1007.03 1006.77 1006.62 1006.56 1006.57 1006.59 1006.61 1006.58 1006.50 1006.36 1006.16 1005.92 1005.67 1005.43 1005.21 1005.03 1004.91 1004.85 1004.84 1004.89 1005.00 1005.16 1005.39
1009.06 1009.06 1008.98 1008.86 1008.75 1008.69 1008.70 1008.80 1008.97 1009.17 1009.36 1009.49 1009.52 1009.42 1009.17 1008.81 1008.35 1007.86 1007.38 1006.95 1006.62 1006.40 1006.29 1006.28 1006.32 1006.38 1006.41 1006.40 1006.32 1006.16 1005.93 1005.64 1005.34 1005.03 1004.75 1004.52 1004.35 1004.25 1004.24 1004.30 1004.44 1004.66 1004.95
1009.21 1009.18 1009.07 1008.92 1008.79 1008.70 1008.69 1008.75 1008.87 1009.02 1009.14 1009.20 1009.16 1009.00 1008.71 1008.31 1007.85 1007.36 1006.89 1006.49 1006.20 1006.02 1005.95 1005.97 1006.04 1006.12 1006.18 1006.17 1006.09 1005.92 1005.67 1005.36 1005.02 1004.68 1004.37 1004.11 1003.94 1003.85 1003.86 1003.97 1004.19 1004.49 1004.88
1009.35 1009.31 1009.19 1009.03 1008.89 1008.78 1008.74 1008.75 1008.81 1008.88 1008.92 1008.91 1008.79 1008.57 1008.24 1007.82 1007.35 1006.86 1006.42 1006.05 1005.79 1005.64 1005.59 1005.64 1005.73 1005.83 1005.90 1005.91 1005.84 1005.68 1005.43 1005.13 1004.79 1004.46 1004.15 1003.92 1003.77 1003.72 1003.79 1003.99 1004.29 1004.70 1005.20
1009.50 1009.46 1009.35 1009.19 1009.04 1008.91 1008.83 1008.79 1008.77 1008.77 1008.73 1008.63 1008.45 1008.17 1007.80 1007.36 1006.88 1006.41 1005.98 1005.63 1005.39 1005.26 1005.24 1005.30 1005.40 1005.52 1005.61 1005.64 1005.60 1005.47 1005.27 1005.00 1004.71 1004.42 1004.17 1003.99 1003.90 1003.92 1004.07 1004.35 1004.74 1005.24 1005.83
1009.68 1009.64 1009.54 1009.39 1009.23 1009.08 1008.95 1008.85 1008.76 1008.67 1008.55 1008.37 1008.11 1007.78 1007.38 1006.92 1006.44 1005.97 1005.56 1005.23 1005.00 1004.88 1004.86 1004.93 1005.05 1005.18 1005.30 1005.38 1005.39 1005.32 1005.19 1005.01 1004.81 1004.60 1004.44 1004.33 1004.32 1004.42 1004.65 1004.99 1005.45 1006.02 1006.66
1009.89 1009.86 1009.76 1009.61 1009.44 1009.26 1009.08 1008.91 1008.75 1008.57 1008.36 1008.10 1007.78 1007.40 1006.96 1006.49 1006.00 1005.54 1005.13 1004.81 1004.58 1004.46 1004.44 1004.52 1004.65 1004.81 1004.97 1005.11 1005.19 1005.23 1005.21 1005.15 1005.06 1004.97 1004.91 1004.90 1004.98 1005.15 1005.43 1005.82 1006.31 1006.88 1007.52
1010.14 1010.10 1009.99 1009.83 1009.63 1009.41 1009.17 1008.94 1008.69 1008.42 1008.13 1007.79 1007.41 1006.98 1006.51 1006.02 1005.53 1005.07 1004.66 1004.34 1004.11 1003.99 1003.97 1004.05 1004.20 1004.39 1004.61 1004.82 1005.01 1005.16 1005.27 1005.34 1005.39 1005.43 1005.49 1005.58 1005.73 1005.95 1006.26 1006.66 1007.14 1007.68 1008.27
Thickness
5796 5796 5796 5795 5792 5789 5786 5784 5782 5781 5780 5777 5775 5773 5771 5771 5771 5771 5771 5770 5770 5769 5768 5766 5765 5764 5762 5761 5761 5760 5758 5757 5757 5753 5750 5752 5754 5754 5754 5754 5754 5753 5752
5792 5793 5793 5793 5790 5787 5784 5783 5780 5779 5778 5777 5776 5774 5772 5771 5770 5770 5769 5769 5768 5768 5767 5765 5763 5762 5761 5759 5759 5758 5755 5755 5754 5749 5744 5740 5742 5747 5751 5751 5750 5750 5750
5790 5790 5790 5790 5788 5785 5783 5782 5780 5778 5777 5776 5775 5773 5770 5768 5766 5765 5765 5766 5766 5766 5765 5764 5762 5761 5759 5757 5757 5757 5754 5751 5751 5750 5745 5737 5733 5737 5743 5746 5747 5747 5746
5790 5789 5788 5787 5786 5785 5784 5781 5779 5777 5776 5774 5772 5768 5764 5761 5762 5762 5762 5763 5763 5763 5763 5762 5761 5759 5758 5756 5755 5755 5754 5751 5747 5747 5747 5745 5742 5735 5733 5738 5742 5743 5743
5790 5788 5787 5786 5786 5785 5782 5780 5777 5775 5774 5772 5769 5766 5763 5761 5761 5760 5759 5759 5760 5760 5759 5759 5758 5756 5755 5754 5753 5752 5751 5749 5747 5744 5743 5742 5740 5738 5732 5729 5732 5735 5738
5792 5788 5786 5784 5781 5780 5780 5777 5774 5771 5771 5769 5767 5764 5761 5758 5757 5756 5754 5754 5754 5755 5755 5755 5754 5752 5751 5751 5750 5749 5748 5747 5745 5743 5742 5739 5736 5733 5731 5727 5727 5728 5732
5790 5787 5783 5779 5778 5777 5775 5774 5771 5768 5768 5766 5764 5762 5759 5757 5754 5753 5751 5750 5749 5749 5750 5750 5749 5748 5748 5748 5747 5746 5745 5744 5742 5740 5738 5737 5736 5735 5732 5728 5724 5724 5726
5788 5785 5783 5780 5777 5775 5773 5771 5768 5765 5765 5763 5761 5760 5758 5755 5753 5751 5749 5747 5746 5746 5746 5746 5745 5745 5744 5744 5743 5742 5741 5740 5739 5738 5736 5734 5734 5734 5731 5727 5723 5719 5719
5787 5785 5782 5780 5776 5773 5771 5769 5766 5764 5762 5761 5759 5757 5755 5752 5750 5748 5746 5744 5744 5744 5743 5742 5741 5740 5740 5739 5739 5737 5736 5736 5735 5734 5732 5731 5731 5731 5730 5728 5725 5719 5713
5785 5783 5781 5779 5775 5773 5771 5768 5765 5762 5760 5758 5756 5754 5751 5749 5747 5745 5742 5741 5740 5739 5738 5738 5737 5736 5735 5734 5733 5732 5731 5730 5729 5729 5728 5726 5726 5726 5725 5724 5722 5720 5715
5783 5781 5779 5777 5774 5771 5768 5764 5761 5758 5756 5754 5752 5749 5746 5745 5743 5740 5739 5738 5736 5735 5734 5733 5731 5730 5730 5729 5727 5726 5725 5724 5723 5723 5722 5721 5721 5719 5719 5718 5717 5715 5713
5782 5780 5777 5774 5771 5768 5765 5761 5758 5755 5753 5751 5748 5744 5742 5740 5738 5736 5735 5734 5732 5731 5729 5728 5726 5725 5724 5723 5722 5720 5719 5717 5717 5716 5715 5714 5715 5713 5713 5712 5711 5710 5709
5779 5776 5773 5770 5767 5764 5762 5758 5755 5752 5750 5747 5743 5739 5737 5735 5733 5732 5731 5729 5727 5726 5724 5723 5721 5719 5718 5717 5716 5715 5713 5712 5711 5711 5710 5709 5708 5706 5706 5705 5705 5704 5704
5775 5771 5768 5765 5763 5760 5758 5755 5751 5749 5746 5742 5738 5734 5733 5731 5729 5727 5726 5724 5722 5720 5718 5716 5715 5713 5712 5711 5710 5709 5708 5706 5706 5705 5704 5703 5702 5701 5700 5699 5698 5697 5696
5769 5767 5763 5761 5758 5755 5752 5750 5747 5744 5741 5737 5733 5730 5729 5727 5725 5722 5720 5718 5716 5714 5712 5709 5708 5707 5706 5705 5704 5703 5702 5700 5699 5699 5698 5698 5697 5697 5695 5694 5692 5691 5688
5765 5763 5760 5756 5753 5750 5747 5745 5742 5738 5735 5731 5728 5726 5724 5721 5719 5717 5714 5712 5709 5707 5705 5702 5701 5699 5699 5698 5698 5696 5694 5693 5692 5691 5690 5690 5690 5690 5689 5689 5687 5686 5683
5762 5759 5756 5753 5750 5747 5744 5740 5737 5734 5730 5726 5723 5720 5718 5715 5713 5712 5708 5705 5703 5700 5698 5696 5694 5692 5691 5691 5690 5689 5687 5686 5684 5683 5682 5683 5683 5681 5681 5680 5680 5679 5678
5758 5755 5752 5749 5746 5743 5740 5736 5732 5728 5724 5721 5718 5715 5713 5710 5708 5705 5702 5699 5697 5694 5691 5688 5686 5684 5683 5683 5682 5681 5680 5678 5677 5676 5675 5674 5673 5674 5673 5672 5670 5669 5669
5754 5751 5749 5746 5742 5738 5735 5731 5725 5722 5718 5715 5712 5710 5707 5704 5701 5698 5695 5693 5690 5687 5685 5681 5679 5677 5675 5675 5673 5672 5671 5669 5669 5669 5668 5667 5667 5667 5666 5664 5661 5660 5660
5749 5746 5743 5740 5736 5733 5729 5724 5719 5715 5712 5710 5708 5705 5702 5699 5695 5692 5690 5687 5684 5681 5678 5675 5673 5671 5668 5667 5665 5664 5663 5661 5660 5661 5661 5661 5661 5660 5658 5656 5653 5651 5652
5741 5739 5736 5732 5729 5727 5723 5717 5713 5709 5708 5706 5703 5699 5696 5693 5690 5687 5684 5681 5678 5674 5671 5669 5666 5664 5661 5659 5659 5657 5654 5653 5652 5652 5652 5653 5653 5653 5651 5649 5648 5647 5646
5732 5731 5727 5723 5721 5719 5715 5710 5705 5704 5703 5699 5695 5691 5688 5686 5684 5679 5676 5674 5670 5667 5664 5661 5659 5657 5655 5652 5651 5650 5648 5647 5645 5644 5645 5645 5646 5646 5645 5643 5642 5641 5639
5724 5722 5719 5715 5713 5711 5708 5702 5699 5698 5695 5691 5687 5684 5681 5678 5676 5672 5669 5666 5663 5660 5656 5653 5650 5648 5647 5645 5644 5643 5642 5641 5639 5638 5639 5638 5638 5638 5636 5635 5634 5632 5629
5717 5714 5710 5706 5703 5702 5699 5696 5693 5690 5687 5682 5679 5676 5673 5671 5668 5665 5663 5659 5656 5653 5650 5646 5642 5640 5638 5637 5636 5635 5634 5633 5632 5630 5630 5630 5630 5629 5628 5626 5625 5623 5621
5710 5707 5702 5698 5695 5693 5691 5689 5686 5683 5678 5674 5671 5668 5666 5663 5660 5657 5655 5652 5650 5647 5644 5640 5637 5633 5631 5631 5630 5627 5626 5625 5624 5622 5621 5620 5619 5618 5617 5616 5615 5614 5612
5703 5699 5695 5692 5689 5686 5683 5681 5679 5675 5671 5666 5663 5661 5658 5655 5652 5649 5647 5646 5644 5642 5640 5637 5633 5630 5628 5626 5624 5622 5620 5619 5617 5614 5611 5610 5609 5608 5607 5606 5605 5604 5603